Старбеево

Россия / Московская область     55°55′10″N   37°28′40″E
темп.,
°C
ветер,
м/с
пор.,
м/с
влажн.,
%
обл.,
%
осадки,
мм/ч
давл.,
гПа
погр.,
м
16 апреля, пт
пт1600:00+9св61586100 0.1 1018530
03:00+8всв51389100 0.1 1019524
06:00+7всв61390100 0.2 1019528
09:00+9всв61181100 0.4 1020556
12:00+12всв6965100 0.3 1021784
15:00+14всв6959100 0.3 10211049
18:00+13всв61164100 0.0 10201136
21:00+10всв71374100 0.0 1022725
17 апреля, сб
сб1700:00+9в6138299 0.4 1022684
03:00+8всв5118494 0.6 1023511
06:00+6всв5128596 0.1 1023477
09:00+9всв61071100 0.1 1023567
12:00+12всв71058100 0.1 1023898
15:00+15всв7104975 0.3 10221324
18:00+13всв7125051 0.0 10211067
21:00+10всв6145019 0.0 1022787
18 апреля, вс
вс1800:00+8всв6145475 0.0 1022653
03:00+6всв6136192 0.0 1022544
06:00+6всв51164100 0.0 1022639
09:00+8всв7125694 0.0 1023875
12:00+9в61053100 0.0 10241203
15:00+12в5846100 0.0 10241867
18:00+11в484594 0.0 10241069
21:00+8св3958100 0.0 1024299
19 апреля, пн
пн1900:00+7всв4116576 0.0 1025504
03:00+5всв5118060 0.0 1026477
06:00+4всв4108782 0.0 1027467
09:00+7всв587298 0.0 1027751
12:00+9всв6860100 0.0 10271224
15:00+9всв6855100 0.0 10261516
18:00+8в6853100 0.0 10271335
21:00+6всв5115686 0.0 1027704
20 апреля, вт
вт2000:00+4в51157100 0.0 1027561
03:00+2всв5116088 0.0 1027488
06:00+1всв5116394 0.0 1025541
09:00+4в61058100 0.0 1024758
12:00+7в71151100 0.0 10221314
15:00+6в71466100 0.0 10191084
18:00+4в91877100 1.4 10161196
21:00+3в92096100 6.4 10131124